Change the Weather History Date:

Wednesday, July 24, 2013

  Actual Average Record
Temperature  
Mean Temperature 59 °F -  
Max Temperature 63 °F 61 °F 70 °F (1951)
Min Temperature 57 °F 51 °F 45 °F (1969)
Degree Days  
Heating Degree Days 6    
Growing Degree Days 9 (Base 50)    
Moisture  
Dew Point 55 °F    
Average Humidity 91    
Maximum Humidity 96    
Minimum Humidity 80    
Precipitation  
Precipitation 0.35 in - - ()
Sea Level Pressure  
Sea Level Pressure 30.08 in    
Wind  
Wind Speed 4 mph (SW)    
Max Wind Speed 9 mph    
Max Gust Speed -    
Visibility 8 miles    
Events Rain    
Averages and records for this station are not official NWS values.
T = Trace of Precipitation, MM = Missing Value Source: NWS Daily Summary

Daily Weather History Graph

Daily Weather History Graph

Search for Another Location

Airport or City:

Trip Planner

Search our weather history database for the weather conditions in past years. The results will help you decide how hot, cold, wet, or windy it might be!

Date:

Astronomy

Jul. 24, 2013 Rise Set
Actual Time 4:45 AM AKDT 9:29 PM AKDT
Civil Twilight 3:50 AM AKDT 10:23 PM AKDT
Nautical Twilight 2:12 AM AKDT 11:58 PM AKDT
Astronomical Twilight Sun does not rise Sun does not rise
Moon 9:47 PM AKDT (7/24) 7:58 AM AKDT (7/24)
Length of Visible Light 18h 32m
Length of Day
16h 43m
Waning Gibbous, 94% of the Moon is Illuminated
Jul 24
Waning Gibbous
Jul 29
Last Quarter
Aug 6
New
Aug 14
First Quarter
Aug 20
Full

Hourly Weather History & Observations

Time (AKDT) Temp. Dew Point Humidity Pressure Visibility Wind Dir Wind Speed Gust Speed Precip Events Conditions
12:01 AM 57.9 °F 55.0 °F 90% 30.07 in 10.0 mi Calm Calm - N/A   Overcast
12:18 AM 57.9 °F 55.9 °F 93% 30.07 in 10.0 mi Calm Calm - 0.00 in Rain Light Rain
12:49 AM 57.2 °F 55.4 °F 94% 30.07 in 10.0 mi SW 4.6 mph - 0.00 in   Overcast
12:53 AM 57.9 °F 55.9 °F 93% 30.07 in 10.0 mi SW 5.8 mph - 0.00 in   Overcast
1:27 AM 57.9 °F 55.9 °F 93% 30.07 in 10.0 mi WSW 6.9 mph - N/A   Overcast
1:36 AM 57.9 °F 55.9 °F 93% 30.07 in 10.0 mi SW 8.1 mph - N/A   Overcast
1:50 AM 57.2 °F 55.4 °F 94% 30.07 in 10.0 mi SW 8.1 mph - N/A   Overcast
1:53 AM 57.9 °F 55.9 °F 93% 30.07 in 10.0 mi SW 8.1 mph - N/A   Overcast
2:05 AM 57.9 °F 55.9 °F 93% 30.07 in 6.0 mi SW 6.9 mph - 0.01 in Rain Light Rain
2:11 AM 57.9 °F 55.9 °F 93% 30.07 in 2.5 mi SW 6.9 mph - 0.03 in Rain Rain
2:33 AM 57.0 °F 55.9 °F 96% 30.07 in 2.0 mi SSW 6.9 mph - 0.10 in Rain Heavy Rain
2:51 AM 57.2 °F 55.4 °F 94% 30.07 in 3.0 mi SSW 5.8 mph - 0.15 in Rain Rain
2:53 AM 57.0 °F 55.9 °F 96% 30.07 in 4.0 mi SSW 5.8 mph - 0.15 in Rain Rain
3:13 AM 57.0 °F 55.9 °F 96% 30.07 in 3.0 mi SW 6.9 mph - 0.07 in Rain Rain
3:53 AM 57.0 °F 55.0 °F 93% 30.06 in 8.0 mi South 5.8 mph - 0.12 in Rain Light Rain
4:53 AM 57.0 °F 55.0 °F 93% 30.06 in 10.0 mi SSW 8.1 mph - 0.00 in   Overcast
5:02 AM 57.0 °F 55.0 °F 93% 30.06 in 10.0 mi SSW 8.1 mph - N/A   Overcast
5:42 AM 57.0 °F 55.0 °F 93% 30.06 in 6.0 mi SSW 4.6 mph - 0.01 in Rain Light Rain
5:51 AM 57.2 °F 55.4 °F 94% 30.06 in 4.0 mi South 4.6 mph - 0.01 in Rain Light Rain
5:53 AM 57.0 °F 55.0 °F 93% 30.07 in 4.0 mi SSW 4.6 mph - 0.01 in Rain Light Rain
6:06 AM 57.0 °F 55.0 °F 93% 30.07 in 4.0 mi SSW 3.5 mph - 0.00 in Rain Light Rain
6:10 AM 57.0 °F 55.0 °F 93% 30.07 in 4.0 mi SSW 3.5 mph - 0.00 in Rain Light Rain
6:31 AM 57.0 °F 55.9 °F 96% 30.07 in 3.0 mi SSW 5.8 mph - 0.03 in Rain Light Rain
6:53 AM 57.0 °F 55.9 °F 96% 30.08 in 2.5 mi SSW 3.5 mph - 0.04 in Rain Light Rain
7:17 AM 57.9 °F 55.9 °F 93% 30.07 in 4.0 mi Calm Calm - 0.02 in Rain Light Rain
7:29 AM 57.9 °F 55.9 °F 93% 30.07 in 6.0 mi SW 3.5 mph - 0.03 in Rain Light Rain
7:36 AM 57.9 °F 55.9 °F 93% 30.07 in 6.0 mi WSW 3.5 mph - 0.03 in Rain Light Rain
7:53 AM 57.9 °F 55.9 °F 93% 30.07 in 7.0 mi WSW 4.6 mph - 0.03 in   Overcast
8:53 AM 59.0 °F 55.9 °F 90% 30.07 in 7.0 mi WSW 4.6 mph - 0.00 in   Overcast
9:19 AM 60.1 °F 57.0 °F 90% 30.07 in 10.0 mi WNW 4.6 mph - N/A   Overcast
9:33 AM 60.1 °F 57.0 °F 90% 30.07 in 10.0 mi West 5.8 mph - N/A   Overcast
9:49 AM 59.0 °F 55.4 °F 88% 30.07 in 10.0 mi West 5.8 mph - N/A   Overcast
9:53 AM 59.0 °F 55.9 °F 90% 30.07 in 10.0 mi West 4.6 mph - N/A   Overcast
10:53 AM 57.9 °F 55.0 °F 90% 30.08 in 10.0 mi WSW 5.8 mph - N/A   Overcast
11:16 AM 57.9 °F 55.0 °F 90% 30.08 in 10.0 mi West 6.9 mph - N/A   Overcast
11:44 AM 60.1 °F 55.9 °F 86% 30.08 in 10.0 mi SW 9.2 mph - N/A   Overcast
11:53 AM 59.0 °F 55.9 °F 90% 30.09 in 8.0 mi WSW 5.8 mph - 0.00 in Rain Light Rain
12:04 PM 59.0 °F 55.9 °F 90% 30.09 in 10.0 mi SW 5.8 mph - 0.00 in   Overcast
12:53 PM 59.0 °F 55.0 °F 87% 30.09 in 10.0 mi SW 5.8 mph - 0.00 in   Overcast
1:49 PM 59.0 °F 55.4 °F 88% 30.09 in 10.0 mi SW 4.6 mph - N/A   Overcast
1:53 PM 59.0 °F 55.0 °F 87% 30.09 in 10.0 mi WSW 3.5 mph - N/A   Overcast
2:53 PM 61.0 °F 55.9 °F 83% 30.09 in 10.0 mi SW 4.6 mph - N/A   Mostly Cloudy
3:00 PM 61.0 °F 55.9 °F 83% 30.09 in 10.0 mi Variable 3.5 mph - N/A   Mostly Cloudy
3:53 PM 61.0 °F 55.0 °F 81% 30.08 in 10.0 mi SW 4.6 mph - N/A   Scattered Clouds
4:53 PM 60.1 °F 55.0 °F 83% 30.08 in 10.0 mi WSW 5.8 mph - N/A   Scattered Clouds
5:53 PM 60.1 °F 55.0 °F 83% 30.08 in 10.0 mi WSW 4.6 mph - N/A   Mostly Cloudy
6:53 PM 60.1 °F 54.0 °F 80% 30.08 in 10.0 mi West 3.5 mph - N/A   Mostly Cloudy
7:53 PM 59.0 °F 55.0 °F 87% 30.08 in 10.0 mi Calm Calm - 0.00 in Rain Light Rain
8:45 PM 57.9 °F 55.0 °F 90% 30.08 in 10.0 mi Calm Calm - 0.00 in Rain Light Rain
8:53 PM 59.0 °F 55.0 °F 87% 30.09 in 10.0 mi South 3.5 mph - 0.00 in   Overcast
9:53 PM 57.9 °F 55.0 °F 90% 30.09 in 10.0 mi Calm Calm - N/A   Overcast
10:00 PM 57.9 °F 55.0 °F 90% 30.08 in 10.0 mi Calm Calm - N/A   Overcast
10:53 PM 57.9 °F 55.0 °F 90% 30.09 in 10.0 mi Calm Calm - N/A   Overcast
11:53 PM 59.0 °F 55.0 °F 87% 30.09 in 10.0 mi Calm Calm - N/A   Overcast